| time (UTC) | temp F | wind direction | speed knots | gust knots | rain 1hr in | rain 24hr in | rain mn in | humidity % | barometer mb |
| 20260507194550 | 69 | 197 | 6.1 | 10.4 | 0.00 | 0.00 | 0.00 | 35 | 1019.0 |
| 20260507193109 | 69 | 197 | 1.7 | 5.2 | 0.00 | 0.00 | 0.00 | 39 | 1018.8 |
| 20260507191536 | 69 | 197 | 1.7 | 8.7 | 0.00 | 0.00 | 0.00 | 38 | 1018.7 |
| 20260507190039 | 69 | 197 | 1.7 | 9.6 | 0.00 | 0.00 | 0.00 | 34 | 1018.6 |
| 20260507184534 | 69 | 197 | 5.2 | 9.6 | 0.00 | 0.00 | 0.00 | 35 | 1018.7 |
| 20260507183039 | 68 | 196 | 3.5 | 7.0 | 0.00 | 0.00 | 0.00 | 39 | 1018.6 |
| 20260507181532 | 68 | 197 | 6.1 | 9.6 | 0.00 | 0.00 | 0.00 | 39 | 1018.6 |
| 20260507180032 | 68 | 197 | 4.3 | 9.6 | 0.00 | 0.00 | 0.00 | 44 | 1018.7 |
| 20260507174532 | 67 | 197 | 4.3 | 7.8 | 0.00 | 0.00 | 0.00 | 45 | 1018.5 |
| 20260507173031 | 68 | 197 | 4.3 | 8.7 | 0.00 | 0.00 | 0.00 | 46 | 1018.6 |
| 20260507171519 | 69 | 197 | 3.5 | 7.0 | 0.00 | 0.00 | 0.00 | 43 | 1018.7 |
| 20260507170019 | 70 | 197 | 1.7 | 6.1 | 0.00 | 0.00 | 0.00 | 38 | 1018.2 |
| 20260507164518 | 70 | 197 | 5.2 | 8.7 | 0.00 | 0.00 | 0.00 | 39 | 1018.1 |
| 20260507163017 | 70 | 197 | 4.3 | 9.6 | 0.00 | 0.00 | 0.00 | 38 | 1018.2 |
| 20260507161520 | 70 | 197 | 4.3 | 9.6 | 0.00 | 0.00 | 0.00 | 39 | 1018.2 |
| 20260507160027 | 71 | 197 | 5.2 | 9.6 | 0.00 | 0.00 | 0.00 | 40 | 1018.0 |
| 20260507154517 | 71 | 197 | 5.2 | 10.4 | 0.00 | 0.00 | 0.00 | 38 | 1018.2 |
| 20260507153020 | 71 | 200 | 7.8 | 12.2 | 0.00 | 0.00 | 0.00 | 38 | 1018.4 |
| 20260507151506 | 71 | 197 | 4.3 | 9.6 | 0.00 | 0.00 | 0.00 | 41 | 1018.6 |
| 20260507150003 | 71 | 197 | 2.6 | 9.6 | 0.00 | 0.00 | 0.00 | 43 | 1018.5 |
| 20260507144502 | 71 | 197 | 6.1 | 11.3 | 0.00 | 0.00 | 0.00 | 41 | 1018.6 |
| 20260507143002 | 71 | 200 | 4.3 | 12.2 | 0.00 | 0.00 | 0.00 | 42 | 1018.5 |
| 20260507141503 | 71 | 198 | 7.0 | 12.2 | 0.00 | 0.00 | 0.00 | 40 | 1018.6 |
| 20260507140111 | 72 | 201 | 7.8 | 14.8 | 0.00 | 0.00 | 0.00 | 39 | 1018.2 |
| 20260507134609 | 73 | 200 | 5.2 | 13.0 | 0.00 | 0.00 | 0.00 | 37 | 1018.2 |
| 20260507133108 | 74 | 201 | 7.0 | 11.3 | 0.00 | 0.00 | 0.00 | 33 | 1018.0 |
| 20260507131546 | 73 | 198 | 6.1 | 12.2 | 0.00 | 0.00 | 0.00 | 33 | 1017.9 |
| 20260507130044 | 72 | 201 | 7.0 | 11.3 | 0.00 | 0.00 | 0.00 | 37 | 1018.2 |
| 20260507124542 | 73 | 197 | 6.1 | 13.0 | 0.00 | 0.00 | 0.00 | 38 | 1018.5 |
| 20260507123045 | 73 | 200 | 5.2 | 11.3 | 0.00 | 0.00 | 0.00 | 42 | 1018.6 |
| 20260507121539 | 72 | 197 | 6.1 | 12.2 | 0.00 | 0.00 | 0.00 | 44 | 1018.6 |
| 20260507120038 | 73 | 195 | 7.0 | 12.2 | 0.00 | 0.00 | 0.00 | 46 | 1018.6 |
| 20260507114537 | 73 | 197 | 6.1 | 11.3 | 0.00 | 0.00 | 0.00 | 44 | 1018.7 |
| 20260507113037 | 72 | 197 | 6.1 | 12.2 | 0.00 | 0.00 | 0.00 | 51 | 1018.8 |
| 20260507111520 | 72 | 200 | 6.1 | 11.3 | 0.00 | 0.00 | 0.00 | 54 | 1019.0 |
| 20260507110021 | 72 | 200 | 5.2 | 12.2 | 0.00 | 0.00 | 0.00 | 58 | 1018.8 |
| 20260507104520 | 73 | 195 | 4.3 | 11.3 | 0.00 | 0.00 | 0.00 | 53 | 1018.9 |
| 20260507103018 | 73 | 197 | 5.2 | 10.4 | 0.00 | 0.00 | 0.00 | 50 | 1018.5 |
| 20260507101518 | 73 | 200 | 6.1 | 11.3 | 0.00 | 0.00 | 0.00 | 50 | 1018.3 |
| 20260507100015 | 73 | 197 | 3.5 | 8.7 | 0.00 | 0.00 | 0.00 | 53 | 1018.4 |
| 20260507094511 | 71 | 198 | 0.0 | 7.0 | 0.00 | 0.00 | 0.00 | 73 | 1018.5 |
| 20260507093011 | 70 | 197 | 3.5 | 8.7 | 0.00 | 0.00 | 0.00 | 73 | 1018.6 |
| 20260507091557 | 70 | 197 | 3.5 | 7.8 | 0.00 | 0.00 | 0.00 | 67 | 1018.6 |
| 20260507090106 | 70 | 197 | 0.9 | 6.1 | 0.00 | 0.00 | 0.00 | 69 | 1018.4 |
| 20260507084553 | 70 | 197 | 1.7 | 5.2 | 0.00 | 0.00 | 0.00 | 68 | 1018.6 |
| 20260507083050 | 70 | 197 | 0.0 | 2.6 | 0.00 | 0.00 | 0.00 | 68 | 1018.5 |
| 20260507081548 | 69 | 198 | 0.0 | 0.9 | 0.00 | 0.00 | 0.00 | 66 | 1018.5 |
| 20260507080047 | 68 | 197 | 1.7 | 6.1 | 0.00 | 0.00 | 0.00 | 67 | 1018.6 |
| 20260507074552 | 68 | 197 | 0.0 | 5.2 | 0.00 | 0.00 | 0.00 | 65 | 1018.5 |
| 20260507073043 | 68 | 198 | 2.6 | 6.1 | 0.00 | 0.00 | 0.00 | 64 | 1018.2 |
| 20260507071530 | 68 | 197 | 1.7 | 6.1 | 0.00 | 0.00 | 0.00 | 59 | 1018.2 |
| 20260507070029 | 68 | 198 | 3.5 | 7.8 | 0.00 | 0.00 | 0.00 | 59 | 1018.4 |
| 20260507064527 | 67 | 198 | 0.0 | 7.0 | 0.00 | 0.00 | 0.00 | 61 | 1018.4 |
| 20260507063029 | 66 | 197 | 4.3 | 7.8 | 0.00 | 0.00 | 0.00 | 62 | 1018.2 |
| 20260507061527 | 66 | 197 | 3.5 | 7.8 | 0.00 | 0.00 | 0.00 | 61 | 1018.3 |
| 20260507060023 | 66 | 198 | 3.5 | 7.0 | 0.00 | 0.00 | 0.00 | 60 | 1018.2 |
| 20260507054520 | 67 | 197 | 2.6 | 5.2 | 0.00 | 0.00 | 0.00 | 54 | 1018.1 |
| 20260507053018 | 67 | 197 | 0.0 | 0.9 | 0.00 | 0.00 | 0.00 | 52 | 1017.5 |
| 20260507051514 | 66 | 197 | 0.0 | 0.0 | 0.00 | 0.00 | 0.00 | 54 | 1017.3 |
| 20260507050053 | 65 | 197 | 0.0 | 0.0 | 0.00 | 0.00 | 0.00 | 57 | 1017.3 |
| 20260507044552 | 64 | 197 | 0.0 | 0.0 | 0.00 | 0.00 | 0.00 | 58 | 1017.3 |
| 20260507043042 | 62 | 197 | 0.0 | 0.0 | 0.00 | 0.00 | 0.00 | 65 | 1017.2 |
| 20260507041551 | 61 | 197 | 0.0 | 0.0 | 0.00 | 0.00 | 0.00 | 66 | 1017.3 |
| 20260507040037 | 0 | 0.0 | 0.0 | 0.00 | 0.00 | 0.00 | 1017.4 | ||
| 20260507034536 | 0 | 0.0 | 0.0 | 0.00 | 0.00 | 0.00 | 1017.4 | ||
| 20260507033032 | 0 | 0.0 | 0.0 | 0.00 | 0.00 | 0.00 | 1017.2 | ||
| 20260507031527 | 0 | 0.0 | 0.0 | 0.00 | 0.00 | 0.00 | 1017.2 | ||
| 20260507030026 | 0 | 0.0 | 0.0 | 0.00 | 0.00 | 0.00 | 1017.1 | ||
| 20260507024526 | 0 | 0.0 | 0.0 | 0.00 | 0.00 | 0.00 | 1017.0 | ||
| 20260507023005 | 0 | 0.0 | 0.0 | 0.00 | 0.00 | 0.00 | 1017.0 | ||
| 20260507021501 | 0 | 0.0 | 0.0 | 0.00 | 0.00 | 0.00 | 1016.9 | ||
| 20260507020147 | 0 | 0.0 | 0.0 | 0.00 | 0.00 | 0.00 | 1017.1 | ||
| 20260507014553 | 0 | 0.0 | 0.0 | 0.00 | 0.00 | 0.00 | 1017.2 | ||
| 20260507013044 | 0 | 0.0 | 0.0 | 0.00 | 0.00 | 0.00 | 1016.9 | ||
| 20260507011538 | 0 | 0.0 | 0.0 | 0.00 | 0.00 | 0.00 | 1016.7 | ||
| 20260507010032 | 0 | 0.0 | 0.0 | 0.00 | 0.00 | 0.00 | 1016.5 | ||
| 20260507004522 | 0 | 0.0 | 0.0 | 0.00 | 0.00 | 0.00 | 1016.5 | ||
| 20260507003018 | 0 | 0.0 | 0.0 | 0.00 | 0.00 | 0.00 | 1016.3 | ||
| 20260507001514 | 0 | 0.0 | 0.0 | 0.00 | 0.00 | 0.00 | 1016.3 | ||
| 20260507000100 | 0 | 0.0 | 0.0 | 0.00 | 0.00 | 0.00 | 1016.5 | ||
| 20260506234554 | 0 | 0.0 | 0.0 | 0.00 | 0.00 | 0.00 | 1016.8 | ||
| 20260506233050 | 0 | 0.0 | 0.0 | 0.00 | 0.00 | 0.00 | 1017.0 | ||
| 20260506231549 | 63 | 197 | 0.0 | 0.0 | 0.00 | 0.00 | 0.00 | 58 | 1017.1 |
| 20260506230046 | 63 | 197 | 0.0 | 0.0 | 0.00 | 0.00 | 0.00 | 59 | 1017.1 |
| 20260506224547 | 63 | 197 | 0.0 | 0.0 | 0.00 | 0.00 | 0.00 | 58 | 1017.1 |
| 20260506223101 | 63 | 197 | 0.0 | 0.0 | 0.00 | 0.00 | 0.00 | 58 | 1017.2 |
| 20260506221541 | 63 | 197 | 0.0 | 0.0 | 0.00 | 0.00 | 0.00 | 59 | 1017.3 |
| 20260506220029 | 64 | 197 | 0.0 | 0.0 | 0.00 | 0.00 | 0.00 | 57 | 1017.2 |
| 20260506214529 | 63 | 198 | 0.0 | 0.0 | 0.00 | 0.00 | 0.00 | 58 | 1017.2 |
| 20260506213025 | 64 | 197 | 0.0 | 0.0 | 0.00 | 0.00 | 0.00 | 60 | 1017.5 |
| 20260506211523 | 64 | 197 | 0.0 | 0.0 | 0.00 | 0.00 | 0.00 | 61 | 1017.6 |
| 20260506210020 | 65 | 196 | 0.0 | 0.0 | 0.00 | 0.00 | 0.00 | 59 | 1017.7 |
| 20260506204520 | 65 | 197 | 0.0 | 0.9 | 0.00 | 0.00 | 0.00 | 55 | 1017.8 |
| 20260506203021 | 65 | 197 | 0.0 | 0.0 | 0.00 | 0.00 | 0.00 | 52 | 1017.8 |
| 20260506201518 | 66 | 197 | 0.0 | 0.0 | 0.00 | 0.00 | 0.00 | 50 | 1017.7 |
| 20260506200005 | 67 | 197 | 0.0 | 0.0 | 0.00 | 0.00 | 0.00 | 48 | 1017.5 |